TimeCDT,TemperatureF,Dew PointF,Humidity,Sea Level PressureIn,VisibilityMPH,Wind Direction,Wind SpeedMPH,Gust SpeedMPH,PrecipitationIn,Events,Conditions,WindDirDegrees,DateUTC
12:53 AM,46.9,44.1,90,29.91,10.0,SW,3.5,-,N/A,,Clear,230,2012-10-20 05:53:00
1:53 AM,48.0,45.0,89,29.92,10.0,South,3.5,-,N/A,,Clear,190,2012-10-20 06:53:00
2:53 AM,48.0,45.0,89,29.93,10.0,Calm,Calm,-,N/A,,Clear,0,2012-10-20 07:53:00
3:53 AM,45.0,43.0,93,29.92,10.0,Calm,Calm,-,N/A,,Clear,0,2012-10-20 08:53:00
4:53 AM,46.4,42.8,87,29.91,10.0,Calm,Calm,-,N/A,,Clear,0,2012-10-20 09:53:00
5:53 AM,44.1,43.0,96,29.94,10.0,Calm,Calm,-,N/A,,Clear,0,2012-10-20 10:53:00
6:53 AM,44.1,43.0,96,29.97,10.0,SSE,3.5,-,N/A,,Clear,160,2012-10-20 11:53:00
7:53 AM,45.0,44.1,97,29.97,10.0,Calm,Calm,-,N/A,,Clear,0,2012-10-20 12:53:00
8:53 AM,55.0,50.0,83,30.00,10.0,SSW,4.6,-,N/A,,Clear,200,2012-10-20 13:53:00
9:53 AM,61.0,50.0,67,30.01,10.0,Calm,Calm,-,N/A,,Clear,0,2012-10-20 14:53:00
10:53 AM,66.0,46.0,48,30.01,10.0,South,8.1,-,N/A,,Clear,180,2012-10-20 15:53:00
11:53 AM,70.0,46.0,42,29.99,10.0,South,9.2,-,N/A,,Clear,180,2012-10-20 16:53:00
12:53 PM,73.0,45.0,37,29.98,10.0,SSW,9.2,-,N/A,,Clear,210,2012-10-20 17:53:00
1:53 PM,73.9,43.0,33,29.95,10.0,SSW,4.6,-,N/A,,Clear,210,2012-10-20 18:53:00
2:53 PM,75.9,41.0,29,29.93,10.0,South,5.8,-,N/A,,Clear,170,2012-10-20 19:53:00
3:53 PM,75.9,42.1,30,29.92,10.0,WSW,4.6,-,N/A,,Clear,240,2012-10-20 20:53:00
4:53 PM,77.0,43.0,30,29.92,10.0,SE,6.9,-,N/A,,Clear,140,2012-10-20 21:53:00
5:53 PM,73.0,46.9,39,29.92,10.0,SE,5.8,-,N/A,,Clear,140,2012-10-20 22:53:00
6:53 PM,64.0,48.9,58,29.92,10.0,SE,5.8,-,N/A,,Clear,130,2012-10-20 23:53:00
7:53 PM,59.0,48.9,69,29.92,10.0,SE,5.8,-,N/A,,Clear,130,2012-10-21 00:53:00
8:53 PM,59.0,48.9,69,29.93,10.0,SE,3.5,-,N/A,,Clear,130,2012-10-21 01:53:00
9:53 PM,57.0,48.9,74,29.95,10.0,SSE,5.8,-,N/A,,Clear,150,2012-10-21 02:53:00
10:53 PM,57.0,48.9,74,29.97,10.0,SSE,6.9,-,N/A,,Clear,160,2012-10-21 03:53:00
11:53 PM,62.1,48.0,60,29.96,10.0,SSE,8.1,-,N/A,,Partly Cloudy,160,2012-10-21 04:53:00